This is the latest recevied weather packets stored in our database for station/object W1REE. If no packets are shown the sender has not sent any weather packets the latest 10 day(s).
| Time | Temp. | Humidity | Pressure | Rain* | Wind** | Luminosity | Snow |
|---|---|---|---|---|---|---|---|
| 1777956865 | 9.44° C | 65% | 1014.5 hPa | 0 mm | - | 0 W/m² | - |
| 1777956561 | 8.89° C | 66% | 1014.2 hPa | 0 mm | - | 0 W/m² | - |
| 1777956259 | 8.89° C | 67% | 1014.4 hPa | 0 mm | - | 0 W/m² | - |
| 1777955955 | 8.89° C | 68% | 1014.2 hPa | 0 mm | - | 0 W/m² | - |
| 1777955651 | 9.44° C | 66% | 1014.4 hPa | 0 mm | - | 0 W/m² | - |
| 1777955348 | 9.44° C | 66% | 1014.2 hPa | 0 mm | - | 0 W/m² | - |
| 1777955044 | 9.44° C | 66% | 1014.4 hPa | 0 mm | - | 0 W/m² | - |
| 1777954742 | 9.44° C | 65% | 1014.2 hPa | 0 mm | - | 0 W/m² | - |
| 1777954439 | 10° C | 64% | 1014.1 hPa | 0 mm | - | 0 W/m² | - |
| 1777954136 | 10° C | 63% | 1013.9 hPa | 0 mm | - | 0 W/m² | - |
| 1777953833 | 10° C | 63% | 1014 hPa | 0 mm | - | 0 W/m² | - |
| 1777953530 | 10° C | 63% | 1014 hPa | 0 mm | - | 0 W/m² | - |
| 1777953225 | 10° C | 63% | 1014 hPa | 0 mm | - | 0 W/m² | - |
| 1777952923 | 10° C | 63% | 1014 hPa | 0 mm | - | 0 W/m² | - |
| 1777952619 | 10° C | 63% | 1013.9 hPa | 0 mm | - | 0 W/m² | - |
| 1777952317 | 10° C | 64% | 1013.9 hPa | 0 mm | - | 0 W/m² | - |
| 1777952014 | 10° C | 61% | 1013.7 hPa | 0 mm | - | 0 W/m² | - |
| 1777951712 | 10° C | 63% | 1013.7 hPa | 0 mm | - | 0 W/m² | - |
| 1777951408 | 10° C | 62% | 1013.5 hPa | 0 mm | - | 0 W/m² | - |
| 1777951105 | 10° C | 62% | 1013.5 hPa | 0 mm | - | 0 W/m² | - |
| 1777950802 | 10° C | 60% | 1013.4 hPa | 0 mm | - | 0 W/m² | - |
| 1777950499 | 10° C | 62% | 1013.5 hPa | 0 mm | - | 0 W/m² | - |
| 1777950195 | 10° C | 61% | 1013.3 hPa | 0 mm | - | 0 W/m² | - |
| 1777949890 | 10° C | 62% | 1013 hPa | 0 mm | - | 0 W/m² | - |
| 1777949589 | 10.56° C | 62% | 1012.9 hPa | 0 mm | - | 0 W/m² | - |
* Rain latest hour (hover to see other rain measurements)
** Current wind speed in m/s (hover to see current wind gust speed)